Location: Angwan Shehu
(11.2514°N, 7.4613°E)
Time: 08:40:24
(UTC+00:00)

Altair - All Passes

Search period start: 19 April 2021 00:00
Search period end: 29 April 2021 00:00
Orbit: 1501 x 1683 km, 47.2° (Epoch: 18 April)

Date Brightness Start Highest point End Pass type
(mag) Time Alt. Az. Time Alt. Az. Time Alt. Az.
19 Apr - 01:10:41 10° S 01:17:47 21° SE 01:24:46 10° E visible
19 Apr - 03:12:08 10° SW 03:22:20 82° NW 03:32:14 10° NE visible
19 Apr - 05:21:19 10° W 05:27:52 19° NW 05:34:20 10° N daylight
19 Apr - 11:48:55 10° NNW 11:56:10 25° NE 12:03:21 10° E daylight
19 Apr - 13:51:59 10° NW 14:01:05 72° SW 14:10:16 10° SSE daylight
19 Apr - 16:03:23 10° WSW 16:05:30 11° SW 16:07:37 10° SW daylight
20 Apr - 00:46:09 10° SSE 00:52:34 19° SE 00:58:53 10° E visible
20 Apr - 02:46:55 10° SW 02:57:07 89° NW 03:07:05 10° NE visible
20 Apr - 04:55:24 10° W 05:02:31 21° NW 05:09:32 10° N visible
20 Apr - 11:24:02 10° N 11:30:54 23° NE 11:37:40 10° E daylight
20 Apr - 13:26:47 10° NW 13:35:57 80° SW 13:45:10 10° SE daylight
20 Apr - 15:36:28 10° WSW 15:40:18 13° SW 15:44:10 10° SSW daylight
21 Apr - 00:21:47 10° SSE 00:27:20 16° SE 00:32:50 10° E visible
21 Apr - 02:21:43 10° SW 02:31:55 83° SE 02:41:53 10° NE visible
21 Apr - 04:29:35 10° W 04:37:11 24° NW 04:44:41 10° N visible
21 Apr - 10:59:11 10° N 11:05:36 20° NE 11:11:56 10° E daylight
21 Apr - 13:01:36 10° NW 13:10:49 88° SW 13:20:02 10° SE daylight
21 Apr - 15:10:13 10° W 15:15:07 16° SW 15:20:05 10° SSW daylight
21 Apr - 23:57:41 10° SSE 00:02:06 14° SE 00:06:30 10° ESE visible
22 Apr - 01:56:34 10° SSW 02:06:43 75° SE 02:16:40 10° NE visible
22 Apr - 04:03:49 10° W 04:11:52 27° NW 04:19:48 10° NNE visible
22 Apr - 10:34:22 10° N 10:40:17 18° NE 10:46:06 10° ENE daylight
22 Apr - 12:36:26 10° NW 12:45:40 83° NE 12:54:52 10° SE daylight
22 Apr - 14:44:14 10° W 14:49:57 18° SW 14:55:44 10° SSW daylight
22 Apr - 23:34:07 10° SE 23:36:52 11° SE 23:39:35 10° ESE night (unlit)
23 Apr - 01:31:27 10° SSW 01:41:31 68° SE 01:51:25 10° NE visible
23 Apr - 03:38:08 10° W 03:46:34 30° NW 03:54:52 10° NNE visible
23 Apr - 10:09:38 10° N 10:14:57 16° NE 10:20:11 10° ENE daylight
23 Apr - 12:11:18 10° NW 12:20:31 75° NE 12:29:40 10° SE daylight
23 Apr - 14:18:25 10° W 14:24:47 21° SW 14:31:13 10° S daylight
24 Apr - 01:06:21 10° SSW 01:16:19 61° SE 01:26:09 10° NE visible
24 Apr - 03:12:30 10° WSW 03:21:16 33° NW 03:29:55 10° NNE visible
24 Apr - 09:44:59 10° N 09:49:35 14° NE 09:54:08 10° ENE daylight
24 Apr - 11:46:11 10° NW 11:55:22 68° NE 12:04:26 10° SE daylight
24 Apr - 13:52:43 10° WNW 13:59:38 24° SW 14:06:36 10° S daylight
25 Apr - 00:41:18 10° SSW 00:51:07 55° SE 01:00:50 10° NE visible
25 Apr - 02:46:55 10° WSW 02:55:59 37° NW 03:04:56 10° NNE visible
25 Apr - 09:20:27 10° N 09:24:12 13° NNE 09:27:55 10° ENE daylight
25 Apr - 11:21:05 10° NNW 11:30:11 61° NE 11:39:11 10° SE daylight
25 Apr - 13:27:07 10° WNW 13:34:29 27° SW 13:41:54 10° S daylight
26 Apr - 00:16:17 10° SSW 00:25:56 49° SE 00:35:29 10° ENE visible
26 Apr - 02:21:23 10° WSW 02:30:43 41° NW 02:39:56 10° NNE visible
26 Apr - 08:56:12 10° NNE 08:58:48 11° NNE 09:01:22 10° NE daylight
26 Apr - 10:56:00 10° NNW 11:05:01 54° NE 11:13:53 10° ESE daylight
26 Apr - 13:01:35 10° WNW 13:09:21 31° SW 13:17:09 10° S daylight
26 Apr - 23:51:19 10° SSW 00:00:44 44° SE 00:10:05 10° ENE visible
27 Apr - 01:55:54 10° WSW 02:05:27 45° NW 02:14:53 10° NNE visible
27 Apr - 10:30:56 10° NNW 10:39:50 49° NE 10:48:33 10° ESE daylight
27 Apr - 12:36:06 10° WNW 12:44:12 35° SW 12:52:19 10° S daylight
27 Apr - 23:26:23 10° SSW 23:35:32 39° SE 23:44:39 10° ENE visible
28 Apr - 01:30:28 10° WSW 01:40:12 50° NW 01:49:50 10° NNE visible
28 Apr - 03:44:14 10° NW 03:46:47 11° NNW 03:49:20 10° NNW visible
28 Apr - 10:05:53 10° NNW 10:14:38 44° NE 10:23:11 10° ESE daylight
28 Apr - 12:10:41 10° WNW 12:19:05 40° SW 12:27:27 10° SSE daylight
28 Apr - 23:01:30 10° S 23:10:21 35° SE 23:19:09 10° ENE visible
